Tracking 19146 objects as of 23-Apr-2018
HD Live streaming from Space Station
objects crossing your sky now

DELTA 2 DEB

Track DELTA 2 DEB now!
10-day predictions


NORAD ID: 27765
Int'l Code: 2000-040D
Perigee: 166.4 km
Apogee: 1,259.3 km
Inclination: 38.8 °
Period: 98.9 minutes
Semi major axis: 7083 km
RCS: 0.0144 m2 (small)
Launch date: July 16, 2000
Source: United States (US)
Launch site: AIR FORCE EASTERN TEST RANGE (AFETR)

Note: This is SATELLITE DEBRIS
aabbcc
Your satellite tracking list
Your tracking list is empty




NASA's NSSDC Master Catalog

Two Line Element Set (TLE):
1 27765U 00040D   18113.27656621  .00404394  31024-5  25215-3 0  9997
2 27765  38.7944 183.0757 0771415 229.1656 123.9711 14.56136924470737
Source of the keplerian elements: AFSPC